Location: Nelson
(41.2830°S, 173.2830°E)
Time: 09:45:15
(UTC+13:00)

Cosmos 1633 - Pass Details

Date: 24 January 2019
Orbit: 466 x 485 km, 82.5° (Epoch: 19 February)

Event Time Altitude Azimuth Distance (km) Brightness Sun altitude
Rises 23:12:47 0° 196° (SSW) 2,554 7.5 -20.7°
Reaches altitude 10° 23:14:58 10° 204° (SSW) 1,668 6.4 -20.9°
Maximum altitude 23:18:22 38° 273° (W) 757 3.7 -21.3°
Enters shadow 23:19:16 32° 307° (NW) 852 3.7 -21.4°
